Time,TemperatureF,DewpointF,PressureIn,WindDirection,WindDirectionDegrees,WindSpeedMPH,WindSpeedGustMPH,Humidity,HourlyPrecipIn,Conditions,Clouds,dailyrainin,SoftwareType,DateUTC
2013-05-01 00:00:00,52.6,48.5,18.39,NE,40,0.0,6.0,86,0.00,,,0.00,Wunderground v.1.15,2013-05-01 04:00:00,
2013-05-01 00:05:00,52.6,48.5,18.39,NE,40,1.0,6.0,86,0.00,,,0.00,Wunderground v.1.15,2013-05-01 04:05:00,
2013-05-01 00:10:00,52.9,48.8,18.39,NE,47,2.0,6.0,86,0.00,,,0.00,Wunderground v.1.15,2013-05-01 04:10:00,
2013-05-01 00:19:00,53.7,49.0,18.39,NE,50,5.0,5.0,84,0.00,,,0.00,Wunderground v.1.15,2013-05-01 04:19:00,
2013-05-01 00:24:00,53.3,48.9,18.39,NE,50,4.0,6.0,85,0.00,,,0.00,Wunderground v.1.15,2013-05-01 04:24:00,
2013-05-01 00:29:00,53.1,48.4,18.39,NE,50,3.0,3.0,84,0.00,,,0.00,Wunderground v.1.15,2013-05-01 04:29:00,
2013-05-01 00:35:00,53.2,48.8,18.39,NE,52,4.0,6.0,85,0.00,,,0.00,Wunderground v.1.15,2013-05-01 04:35:00,
2013-05-01 00:40:00,53.5,49.1,18.39,NE,54,6.0,6.0,85,0.00,,,0.00,Wunderground v.1.15,2013-05-01 04:40:00,
2013-05-01 00:45:00,53.5,48.8,18.39,NE,55,6.0,6.0,84,0.00,,,0.00,Wunderground v.1.15,2013-05-01 04:45:00,
2013-05-01 00:50:00,53.5,48.8,18.39,NE,53,6.0,6.0,84,0.00,,,0.00,Wunderground v.1.15,2013-05-01 04:50:00,
2013-05-01 00:55:00,53.9,49.2,18.39,NE,52,7.0,8.0,84,0.00,,,0.00,Wunderground v.1.15,2013-05-01 04:55:00,
2013-05-01 01:00:00,54.2,49.1,18.39,ENE,57,7.0,10.0,83,0.00,,,0.00,Wunderground v.1.15,2013-05-01 05:00:00,
2013-05-01 01:10:00,54.1,48.7,18.39,NE,55,7.0,7.0,82,0.00,,,0.00,Wunderground v.1.15,2013-05-01 05:10:00,
2013-05-01 01:15:00,54.0,48.6,18.39,ENE,59,7.0,10.0,82,0.00,,,0.00,Wunderground v.1.15,2013-05-01 05:15:00,
2013-05-01 01:25:00,54.1,48.7,18.39,NE,55,6.0,10.0,82,0.00,,,0.00,Wunderground v.1.15,2013-05-01 05:25:00,
2013-05-01 01:30:00,54.1,48.7,18.39,NE,55,6.0,6.0,82,0.00,,,0.00,Wunderground v.1.15,2013-05-01 05:30:00,
2013-05-01 01:35:00,54.1,48.4,18.39,ENE,59,6.0,8.0,81,0.00,,,0.00,Wunderground v.1.15,2013-05-01 05:35:00,
2013-05-01 01:40:00,54.2,48.5,18.39,ENE,59,6.0,10.0,81,0.00,,,0.00,Wunderground v.1.15,2013-05-01 05:40:00,
2013-05-01 01:45:00,54.0,48.3,18.39,ENE,59,6.0,10.0,81,0.00,,,0.00,Wunderground v.1.15,2013-05-01 05:45:00,
2013-05-01 01:50:00,53.9,48.5,18.39,ENE,58,6.0,10.0,82,0.00,,,0.00,Wunderground v.1.15,2013-05-01 05:50:00,
2013-05-01 02:00:00,53.6,48.2,18.39,ENE,59,6.0,10.0,82,0.00,,,0.00,Wunderground v.1.15,2013-05-01 06:00:00,
2013-05-01 02:10:00,53.5,48.1,18.39,ENE,60,6.0,6.0,82,0.00,,,0.00,Wunderground v.1.15,2013-05-01 06:10:00,
2013-05-01 02:15:00,53.5,48.1,18.39,ENE,57,6.0,7.0,82,0.00,,,0.00,Wunderground v.1.15,2013-05-01 06:15:00,
2013-05-01 02:20:00,53.4,48.0,18.39,ENE,58,6.0,6.0,82,0.00,,,0.00,Wunderground v.1.15,2013-05-01 06:20:00,
2013-05-01 02:29:00,52.7,47.7,18.39,ENE,60,3.0,10.0,83,0.00,,,0.00,Wunderground v.1.15,2013-05-01 06:29:00,
2013-05-01 02:34:00,52.8,47.8,18.39,ENE,57,4.0,10.0,83,0.00,,,0.00,Wunderground v.1.15,2013-05-01 06:34:00,
2013-05-01 02:40:00,53.1,47.7,18.39,NE,53,5.0,10.0,82,0.00,,,0.00,Wunderground v.1.15,2013-05-01 06:40:00,
2013-05-01 02:45:00,53.2,47.8,18.39,ENE,59,6.0,10.0,82,0.00,,,0.00,Wunderground v.1.15,2013-05-01 06:45:00,
2013-05-01 02:50:00,53.3,47.6,18.39,ENE,62,7.0,10.0,81,0.00,,,0.00,Wunderground v.1.15,2013-05-01 06:50:00,
2013-05-01 03:00:00,53.1,47.1,18.39,ENE,61,6.0,10.0,80,0.00,,,0.00,Wunderground v.1.15,2013-05-01 07:00:00,
2013-05-01 03:10:00,52.9,46.9,18.39,ENE,62,6.0,6.0,80,0.00,,,0.00,Wunderground v.1.15,2013-05-01 07:10:00,
2013-05-01 03:15:00,52.8,46.8,18.39,ENE,63,6.0,10.0,80,0.00,,,0.00,Wunderground v.1.15,2013-05-01 07:15:00,
2013-05-01 03:20:00,52.4,46.4,18.39,ENE,63,5.0,5.0,80,0.00,,,0.00,Wunderground v.1.15,2013-05-01 07:20:00,
2013-05-01 03:25:00,52.2,46.2,18.39,ENE,63,4.0,7.0,80,0.00,,,0.00,Wunderground v.1.15,2013-05-01 07:25:00,
2013-05-01 03:35:00,52.2,46.2,18.39,ENE,61,5.0,10.0,80,0.00,,,0.00,Wunderground v.1.15,2013-05-01 07:35:00,
2013-05-01 03:40:00,52.0,45.7,18.39,ENE,61,4.0,4.0,79,0.00,,,0.00,Wunderground v.1.15,2013-05-01 07:40:00,
2013-05-01 03:45:00,51.5,45.5,18.39,ENE,61,2.0,10.0,80,0.00,,,0.00,Wunderground v.1.15,2013-05-01 07:45:00,
2013-05-01 03:50:00,51.2,45.2,18.39,ENE,61,2.0,2.0,80,0.00,,,0.00,Wunderground v.1.15,2013-05-01 07:50:00,
2013-05-01 03:55:00,50.7,44.8,18.39,ENE,61,1.0,10.0,80,0.00,,,0.00,Wunderground v.1.15,2013-05-01 07:55:00,
2013-05-01 04:00:00,50.2,44.6,18.39,ENE,61,0.0,9.0,81,0.00,,,0.00,Wunderground v.1.15,2013-05-01 08:00:00,
2013-05-01 04:10:00,49.5,44.2,18.39,ENE,61,1.0,1.0,82,0.00,,,0.00,Wunderground v.1.15,2013-05-01 08:10:00,
2013-05-01 04:15:00,49.3,44.4,18.39,ENE,61,1.0,9.0,83,0.00,,,0.00,Wunderground v.1.15,2013-05-01 08:15:00,
2013-05-01 04:20:00,49.3,44.4,18.39,ENE,61,1.0,9.0,83,0.00,,,0.00,Wunderground v.1.15,2013-05-01 08:20:00,
2013-05-01 04:25:00,49.5,44.2,18.39,NE,56,2.0,9.0,82,0.00,,,0.00,Wunderground v.1.15,2013-05-01 08:25:00,
2013-05-01 04:30:00,49.9,44.6,18.39,NE,56,3.0,3.0,82,0.00,,,0.00,Wunderground v.1.15,2013-05-01 08:30:00,
2013-05-01 04:40:00,50.0,44.1,18.39,ENE,58,3.0,9.0,80,0.00,,,0.00,Wunderground v.1.15,2013-05-01 08:40:00,
2013-05-01 04:45:00,49.9,44.0,18.39,ENE,57,3.0,9.0,80,0.00,,,0.00,Wunderground v.1.15,2013-05-01 08:45:00,
2013-05-01 04:50:00,49.7,43.8,18.39,ENE,57,3.0,9.0,80,0.00,,,0.00,Wunderground v.1.15,2013-05-01 08:50:00,
2013-05-01 04:55:00,49.7,43.5,18.39,ENE,57,3.0,9.0,79,0.00,,,0.00,Wunderground v.1.15,2013-05-01 08:55:00,
2013-05-01 05:00:00,49.6,43.4,18.39,ENE,57,3.0,3.0,79,0.00,,,0.00,Wunderground v.1.15,2013-05-01 09:00:00,
2013-05-01 05:10:00,49.5,42.9,18.39,NE,47,3.0,10.0,78,0.00,,,0.00,Wunderground v.1.15,2013-05-01 09:10:00,
2013-05-01 05:15:00,49.4,42.8,18.39,NE,47,3.0,10.0,78,0.00,,,0.00,Wunderground v.1.15,2013-05-01 09:15:00,
2013-05-01 05:20:00,49.3,42.7,18.39,NE,35,3.0,10.0,78,0.00,,,0.00,Wunderground v.1.15,2013-05-01 09:20:00,
2013-05-01 05:25:00,49.2,42.6,18.39,NE,35,3.0,10.0,78,0.00,,,0.00,Wunderground v.1.15,2013-05-01 09:25:00,
2013-05-01 05:30:00,49.0,42.4,18.39,NNE,30,2.0,2.0,78,0.00,,,0.00,Wunderground v.1.15,2013-05-01 09:30:00,
2013-05-01 05:34:00,48.8,42.6,18.39,NNE,29,1.0,3.0,79,0.00,,,0.00,Wunderground v.1.15,2013-05-01 09:34:00,
2013-05-01 05:40:00,48.5,42.3,18.39,NNE,30,1.0,10.0,79,0.00,,,0.00,Wunderground v.1.15,2013-05-01 09:40:00,
2013-05-01 05:45:00,48.5,42.3,18.39,NNE,30,2.0,10.0,79,0.00,,,0.00,Wunderground v.1.15,2013-05-01 09:45:00,
2013-05-01 05:50:00,48.4,42.2,18.39,NNE,30,1.0,1.0,79,0.00,,,0.00,Wunderground v.1.15,2013-05-01 09:50:00,
2013-05-01 05:55:00,48.3,42.1,18.39,NNE,30,1.0,10.0,79,0.00,,,0.00,Wunderground v.1.15,2013-05-01 09:55:00,
2013-05-01 06:00:00,48.4,41.9,18.39,NNE,30,1.0,8.0,78,0.00,,,0.00,Wunderground v.1.15,2013-05-01 10:00:00,
2013-05-01 06:10:00,48.6,42.0,18.39,NNE,30,3.0,8.0,78,0.00,,,0.00,Wunderground v.1.15,2013-05-01 10:10:00,
2013-05-01 06:15:00,48.8,41.9,18.39,NNE,29,2.0,8.0,77,0.00,,,0.00,Wunderground v.1.15,2013-05-01 10:15:00,
2013-05-01 06:20:00,49.1,41.9,18.39,NNE,31,3.0,8.0,76,0.00,,,0.00,Wunderground v.1.15,2013-05-01 10:20:00,
2013-05-01 06:25:00,49.4,41.8,18.39,NE,36,3.0,8.0,75,0.00,,,0.00,Wunderground v.1.15,2013-05-01 10:25:00,
2013-05-01 06:30:00,49.6,41.7,18.39,NE,38,3.0,3.0,74,0.00,,,0.00,Wunderground v.1.15,2013-05-01 10:30:00,
2013-05-01 06:35:00,49.7,41.7,18.39,NE,38,2.0,8.0,74,0.00,,,0.00,Wunderground v.1.15,2013-05-01 10:35:00,
2013-05-01 06:45:00,50.5,41.4,18.39,NNE,18,4.0,8.0,71,0.00,,,0.00,Wunderground v.1.15,2013-05-01 10:45:00,
2013-05-01 06:50:00,50.9,41.5,18.39,NNE,18,4.0,4.0,70,0.00,,,0.00,Wunderground v.1.15,2013-05-01 10:50:00,
2013-05-01 06:55:00,51.2,41.4,18.39,NNE,20,4.0,6.0,69,0.00,,,0.00,Wunderground v.1.15,2013-05-01 10:55:00,
2013-05-01 07:00:00,51.7,40.7,18.39,NNE,18,4.0,4.0,66,0.00,,,0.00,Wunderground v.1.15,2013-05-01 11:00:00,
2013-05-01 09:00:00,56.3,34.6,18.39,ENE,61,11.0,13.0,44,0.00,,,0.00,Wunderground v.1.15,2013-05-01 13:00:00,
2013-05-01 09:10:00,57.3,35.0,18.39,ENE,59,10.0,10.0,43,0.00,,,0.00,Wunderground v.1.15,2013-05-01 13:10:00,
2013-05-01 09:15:00,57.9,35.5,18.39,ENE,72,8.0,15.0,43,0.00,,,0.00,Wunderground v.1.15,2013-05-01 13:15:00,
2013-05-01 09:20:00,58.1,32.6,18.39,NE,52,8.0,15.0,38,0.00,,,0.00,Wunderground v.1.15,2013-05-01 13:20:00,
2013-05-01 09:25:00,58.2,34.0,18.39,NE,36,9.0,15.0,40,0.00,,,0.00,Wunderground v.1.15,2013-05-01 13:25:00,
2013-05-01 09:30:00,58.4,31.5,18.39,ENE,59,9.0,15.0,36,0.00,,,0.00,Wunderground v.1.15,2013-05-01 13:30:00,
2013-05-01 09:35:00,58.2,32.0,18.39,NE,48,10.0,15.0,37,0.00,,,0.00,Wunderground v.1.15,2013-05-01 13:35:00,
2013-05-01 09:40:00,58.6,34.3,18.39,ENE,57,11.0,15.0,40,0.00,,,0.00,Wunderground v.1.15,2013-05-01 13:40:00,
2013-05-01 09:50:00,59.0,33.4,18.39,North,3,9.0,9.0,38,0.00,,,0.00,Wunderground v.1.15,2013-05-01 13:50:00,
2013-05-01 09:55:00,59.5,33.9,18.39,NNE,28,9.0,15.0,38,0.00,,,0.00,Wunderground v.1.15,2013-05-01 13:55:00,
2013-05-01 10:00:00,59.5,33.9,18.39,NE,50,9.0,16.0,38,0.00,,,0.00,Wunderground v.1.15,2013-05-01 14:00:00,
2013-05-01 10:10:00,59.7,32.0,18.39,NE,47,8.0,16.0,35,0.00,,,0.00,Wunderground v.1.15,2013-05-01 14:10:00,
2013-05-01 10:15:00,59.6,32.6,18.39,NE,42,9.0,16.0,36,0.00,,,0.00,Wunderground v.1.15,2013-05-01 14:15:00,
2013-05-01 10:25:00,61.2,32.6,18.39,East,87,8.0,16.0,34,0.00,,,0.00,Wunderground v.1.15,2013-05-01 14:25:00,
2013-05-01 10:30:00,61.5,32.8,18.39,East,83,8.0,16.0,34,0.00,,,0.00,Wunderground v.1.15,2013-05-01 14:30:00,
2013-05-01 10:35:00,61.6,35.1,18.39,NE,49,8.0,16.0,37,0.00,,,0.00,Wunderground v.1.15,2013-05-01 14:35:00,
2013-05-01 10:45:00,62.4,35.8,18.39,NE,49,8.0,10.0,37,0.00,,,0.00,Wunderground v.1.15,2013-05-01 14:45:00,
2013-05-01 10:55:00,62.9,33.3,18.39,ENE,62,10.0,10.0,33,0.00,,,0.00,Wunderground v.1.15,2013-05-01 14:55:00,
2013-05-01 11:00:00,63.2,35.8,18.39,East,87,9.0,9.0,36,0.00,,,0.00,Wunderground v.1.15,2013-05-01 15:00:00,
2013-05-01 11:10:00,64.0,34.3,18.39,NE,56,9.0,16.0,33,0.00,,,0.00,Wunderground v.1.15,2013-05-01 15:10:00,
2013-05-01 11:15:00,64.3,36.0,18.39,ENE,73,9.0,16.0,35,0.00,,,0.00,Wunderground v.1.15,2013-05-01 15:15:00,
2013-05-01 11:20:00,64.5,34.7,18.39,ENE,78,8.0,8.0,33,0.00,,,0.00,Wunderground v.1.15,2013-05-01 15:20:00,
2013-05-01 11:25:00,64.8,37.2,18.39,NNE,30,8.0,16.0,36,0.00,,,0.00,Wunderground v.1.15,2013-05-01 15:25:00,
2013-05-01 11:30:00,65.3,35.4,18.39,ENE,65,8.0,16.0,33,0.00,,,0.00,Wunderground v.1.15,2013-05-01 15:30:00,
2013-05-01 11:35:00,65.4,38.4,18.39,NE,46,9.0,16.0,37,0.00,,,0.00,Wunderground v.1.15,2013-05-01 15:35:00,
2013-05-01 11:45:00,65.8,39.5,18.39,NE,43,10.0,16.0,38,0.00,,,0.00,Wunderground v.1.15,2013-05-01 15:45:00,
2013-05-01 11:50:00,66.1,38.4,18.39,NE,43,10.0,10.0,36,0.00,,,0.00,Wunderground v.1.15,2013-05-01 15:50:00,
2013-05-01 12:00:00,66.3,37.8,18.39,ENE,76,10.0,22.0,35,0.00,,,0.00,Wunderground v.1.15,2013-05-01 16:00:00,
2013-05-01 12:10:00,66.9,40.5,18.39,NE,53,9.0,9.0,38,0.00,,,0.00,Wunderground v.1.15,2013-05-01 16:10:00,
2013-05-01 12:15:00,67.3,41.5,18.39,ENE,69,8.0,12.0,39,0.00,,,0.00,Wunderground v.1.15,2013-05-01 16:15:00,
2013-05-01 12:20:00,67.2,38.6,18.39,East,89,8.0,22.0,35,0.00,,,0.00,Wunderground v.1.15,2013-05-01 16:20:00,
2013-05-01 12:30:00,67.6,40.4,18.39,NE,50,7.0,7.0,37,0.00,,,0.00,Wunderground v.1.15,2013-05-01 16:30:00,
2013-05-01 12:35:00,67.8,40.6,18.39,ENE,70,7.0,10.0,37,0.00,,,0.00,Wunderground v.1.15,2013-05-01 16:35:00,
2013-05-01 12:40:00,68.1,42.2,18.39,North,11,7.0,7.0,39,0.00,,,0.00,Wunderground v.1.15,2013-05-01 16:40:00,
2013-05-01 12:50:00,68.1,38.7,18.39,NNE,18,6.0,6.0,34,0.00,,,0.00,Wunderground v.1.15,2013-05-01 16:50:00,
2013-05-01 13:00:00,68.3,40.3,18.39,NE,51,6.0,13.0,36,0.00,,,0.00,Wunderground v.1.15,2013-05-01 17:00:00,
2013-05-01 13:10:00,69.0,41.6,18.39,NE,53,6.0,13.0,37,0.00,,,0.00,Wunderground v.1.15,2013-05-01 17:10:00,
2013-05-01 13:15:00,69.0,40.2,18.39,ENE,63,6.0,13.0,35,0.00,,,0.00,Wunderground v.1.15,2013-05-01 17:15:00,
2013-05-01 13:20:00,69.1,41.7,18.39,NNE,15,6.0,13.0,37,0.00,,,0.00,Wunderground v.1.15,2013-05-01 17:20:00,
2013-05-01 13:25:00,69.2,42.5,18.39,NNE,31,6.0,13.0,38,0.00,,,0.00,Wunderground v.1.15,2013-05-01 17:25:00,
2013-05-01 13:35:00,69.4,40.5,18.39,North,10,6.0,13.0,35,0.00,,,0.00,Wunderground v.1.15,2013-05-01 17:35:00,
2013-05-01 13:40:00,69.7,40.1,18.39,NE,43,5.0,13.0,34,0.00,,,0.00,Wunderground v.1.15,2013-05-01 17:40:00,
2013-05-01 13:45:00,69.5,40.6,18.39,NE,49,6.0,13.0,35,0.00,,,0.00,Wunderground v.1.15,2013-05-01 17:45:00,
2013-05-01 13:50:00,69.6,37.6,18.39,North,3,6.0,13.0,31,0.00,,,0.00,Wunderground v.1.15,2013-05-01 17:50:00,
2013-05-01 13:55:00,69.7,40.1,18.39,NNE,28,5.0,13.0,34,0.00,,,0.00,Wunderground v.1.15,2013-05-01 17:55:00,
2013-05-01 14:00:00,69.9,41.7,18.39,NNE,13,5.0,5.0,36,0.00,,,0.00,Wunderground v.1.15,2013-05-01 18:00:00,
2013-05-01 14:10:00,70.1,37.2,18.39,ENE,73,6.0,6.0,30,0.00,,,0.00,Wunderground v.1.15,2013-05-01 18:10:00,
2013-05-01 14:15:00,70.2,38.9,18.39,NE,48,5.0,15.0,32,0.00,,,0.00,Wunderground v.1.15,2013-05-01 18:15:00,
2013-05-01 14:20:00,70.6,40.1,18.39,North,11,5.0,15.0,33,0.00,,,0.00,Wunderground v.1.15,2013-05-01 18:20:00,
2013-05-01 14:25:00,70.6,40.1,18.39,NNE,30,6.0,15.0,33,0.00,,,0.00,Wunderground v.1.15,2013-05-01 18:25:00,
2013-05-01 14:30:00,70.6,40.1,18.39,North,7,6.0,6.0,33,0.00,,,0.00,Wunderground v.1.15,2013-05-01 18:30:00,
2013-05-01 14:40:00,70.9,39.6,18.39,NNE,24,5.0,5.0,32,0.00,,,0.00,Wunderground v.1.15,2013-05-01 18:40:00,
2013-05-01 14:45:00,71.1,41.3,18.39,NE,45,5.0,15.0,34,0.00,,,0.00,Wunderground v.1.15,2013-05-01 18:45:00,
2013-05-01 14:50:00,71.0,40.4,18.39,NNE,23,5.0,5.0,33,0.00,,,0.00,Wunderground v.1.15,2013-05-01 18:50:00,
2013-05-01 14:55:00,71.2,39.0,18.39,North,3,6.0,9.0,31,0.00,,,0.00,Wunderground v.1.15,2013-05-01 18:55:00,
2013-05-01 15:00:00,71.1,41.3,18.39,NE,48,6.0,13.0,34,0.00,,,0.00,Wunderground v.1.15,2013-05-01 19:00:00,
2013-05-01 15:10:00,71.3,39.1,18.39,ENE,77,6.0,6.0,31,0.00,,,0.00,Wunderground v.1.15,2013-05-01 19:10:00,
2013-05-01 15:15:00,71.5,41.6,18.39,North,9,5.0,13.0,34,0.00,,,0.00,Wunderground v.1.15,2013-05-01 19:15:00,
2013-05-01 15:20:00,71.5,39.3,18.39,NE,51,6.0,13.0,31,0.00,,,0.00,Wunderground v.1.15,2013-05-01 19:20:00,
2013-05-01 15:25:00,71.5,39.3,18.39,ENE,61,7.0,13.0,31,0.00,,,0.00,Wunderground v.1.15,2013-05-01 19:25:00,
2013-05-01 15:30:00,71.6,42.5,18.39,ENE,61,6.0,13.0,35,0.00,,,0.00,Wunderground v.1.15,2013-05-01 19:30:00,
2013-05-01 15:35:00,71.9,42.8,18.39,NE,50,4.0,13.0,35,0.00,,,0.00,Wunderground v.1.15,2013-05-01 19:35:00,
2013-05-01 15:45:00,72.2,39.9,18.39,North,2,4.0,13.0,31,0.00,,,0.00,Wunderground v.1.15,2013-05-01 19:45:00,
2013-05-01 15:50:00,72.1,40.6,18.39,North,3,2.0,13.0,32,0.00,,,0.00,Wunderground v.1.15,2013-05-01 19:50:00,
2013-05-01 15:55:00,72.2,40.7,18.39,NNE,17,3.0,13.0,32,0.00,,,0.00,Wunderground v.1.15,2013-05-01 19:55:00,
2013-05-01 16:00:00,72.0,41.3,18.39,NNE,17,5.0,12.0,33,0.00,,,0.00,Wunderground v.1.15,2013-05-01 20:00:00,
2013-05-01 16:10:00,72.1,39.8,18.39,NE,55,6.0,6.0,31,0.00,,,0.00,Wunderground v.1.15,2013-05-01 20:10:00,
2013-05-01 16:15:00,71.9,38.8,18.39,NE,55,5.0,12.0,30,0.00,,,0.00,Wunderground v.1.15,2013-05-01 20:15:00,
2013-05-01 16:20:00,72.1,41.4,18.39,NE,38,3.0,12.0,33,0.00,,,0.00,Wunderground v.1.15,2013-05-01 20:20:00,
2013-05-01 16:25:00,72.3,40.0,18.39,NE,54,6.0,12.0,31,0.00,,,0.00,Wunderground v.1.15,2013-05-01 20:25:00,
2013-05-01 16:30:00,72.2,39.9,18.39,NNE,18,5.0,5.0,31,0.00,,,0.00,Wunderground v.1.15,2013-05-01 20:30:00,
2013-05-01 16:35:00,72.3,38.2,18.39,NNE,15,3.0,12.0,29,0.00,,,0.00,Wunderground v.1.15,2013-05-01 20:35:00,
2013-05-01 16:45:00,72.6,42.6,18.39,North,9,4.0,12.0,34,0.00,,,0.00,Wunderground v.1.15,2013-05-01 20:45:00,
2013-05-01 16:50:00,72.7,40.3,18.39,NNE,20,3.0,12.0,31,0.00,,,0.00,Wunderground v.1.15,2013-05-01 20:50:00,
2013-05-01 16:55:00,72.8,39.5,18.39,NNE,19,2.0,12.0,30,0.00,,,0.00,Wunderground v.1.15,2013-05-01 20:55:00,
2013-05-01 17:00:00,72.6,41.8,18.39,NNE,18,4.0,4.0,33,0.00,,,0.00,Wunderground v.1.15,2013-05-01 21:00:00,
2013-05-01 17:10:00,72.5,41.0,18.39,NE,45,5.0,11.0,32,0.00,,,0.00,Wunderground v.1.15,2013-05-01 21:10:00,
2013-05-01 17:20:00,72.4,40.9,18.39,ENE,69,4.0,11.0,32,0.00,,,0.00,Wunderground v.1.15,2013-05-01 21:20:00,
2013-05-01 17:25:00,72.5,41.0,18.39,NE,55,4.0,11.0,32,0.00,,,0.00,Wunderground v.1.15,2013-05-01 21:25:00,
2013-05-01 17:30:00,72.4,40.0,18.39,NE,55,5.0,5.0,31,0.00,,,0.00,Wunderground v.1.15,2013-05-01 21:30:00,
2013-05-01 17:35:00,72.4,38.3,18.39,East,81,3.0,7.0,29,0.00,,,0.00,Wunderground v.1.15,2013-05-01 21:35:00,
2013-05-01 17:40:00,72.4,40.0,18.39,East,79,3.0,11.0,31,0.00,,,0.00,Wunderground v.1.15,2013-05-01 21:40:00,
2013-05-01 17:50:00,72.2,38.2,18.39,East,92,7.0,11.0,29,0.00,,,0.00,Wunderground v.1.15,2013-05-01 21:50:00,
2013-05-01 17:55:00,72.2,39.0,18.39,East,83,8.0,11.0,30,0.00,,,0.00,Wunderground v.1.15,2013-05-01 21:55:00,
2013-05-01 18:00:00,72.1,39.8,18.39,East,80,6.0,15.0,31,0.00,,,0.00,Wunderground v.1.15,2013-05-01 22:00:00,
2013-05-01 18:10:00,72.0,40.5,18.39,ENE,67,7.0,15.0,32,0.00,,,0.00,Wunderground v.1.15,2013-05-01 22:10:00,
2013-05-01 18:15:00,72.1,39.8,18.39,East,83,6.0,15.0,31,0.00,,,0.00,Wunderground v.1.15,2013-05-01 22:15:00,
2013-05-01 18:25:00,72.0,39.7,18.39,East,86,6.0,15.0,31,0.00,,,0.00,Wunderground v.1.15,2013-05-01 22:25:00,
2013-05-01 18:30:00,72.0,38.9,18.39,East,88,5.0,15.0,30,0.00,,,0.00,Wunderground v.1.15,2013-05-01 22:30:00,
2013-05-01 18:35:00,71.9,39.6,18.39,East,91,5.0,15.0,31,0.00,,,0.00,Wunderground v.1.15,2013-05-01 22:35:00,
2013-05-01 18:40:00,71.9,38.8,18.39,East,94,6.0,6.0,30,0.00,,,0.00,Wunderground v.1.15,2013-05-01 22:40:00,
2013-05-01 18:45:00,71.8,39.5,18.39,East,93,5.0,15.0,31,0.00,,,0.00,Wunderground v.1.15,2013-05-01 22:45:00,
2013-05-01 18:55:00,71.8,41.1,18.39,East,93,4.0,15.0,33,0.00,,,0.00,Wunderground v.1.15,2013-05-01 22:55:00,
2013-05-01 19:00:00,71.7,41.0,18.39,East,93,3.0,11.0,33,0.00,,,0.00,Wunderground v.1.15,2013-05-01 23:00:00,
2013-05-01 19:10:00,71.4,40.0,18.39,East,89,4.0,11.0,32,0.00,,,0.00,Wunderground v.1.15,2013-05-01 23:10:00,